KD4LXC-1 Weather Reports


Display with metric or nautical units.
time (UTC)temp
F
wind
direction
speed
MPH
gust
MPH
rain 1hr
in
rain 24hr
in
rain mn
in
humidity
%
barometer
mb
20260507115817 61 42 0.0 0.0 0.00 0.00 0.00 46 891.0
20260507114608 61 28 0.0 0.0 0.00 0.00 0.00 45 890.9
20260507113358 62 44 0.0 0.0 0.00 0.00 0.00 45 890.8
20260507112150 62 63 0.0 0.0 0.00 0.00 0.00 43 890.7
20260507110940 62 58 0.0 0.0 0.00 0.00 0.00 43 890.8
20260507105732 62 49 0.0 0.0 0.00 0.00 0.00 42 890.8
20260507104522 62 44 0.0 0.0 0.00 0.00 0.00 42 890.9
20260507103313 63 3 0.0 0.0 0.00 0.00 0.00 42 890.7
20260507102104 63 51 0.0 0.0 0.00 0.00 0.00 41 890.7
20260507100855 63 80 0.0 0.0 0.00 0.00 0.00 40 890.6
20260507095646 63 73 0.0 0.0 0.00 0.00 0.00 40 890.4
20260507094437 63 84 0.0 0.0 0.00 0.00 0.00 39 890.5
20260507093228 63 93 0.0 0.0 0.00 0.00 0.00 38 890.4
20260507090810 63 98 0.0 0.0 0.00 0.00 0.00 36 890.5
20260507085601 64 86 0.0 0.0 0.00 0.00 0.00 35 890.5
20260507084352 64 84 0.0 0.0 0.00 0.00 0.00 34 890.7
20260507083143 64 87 0.0 0.0 0.00 0.00 0.00 34 891.1
20260507081934 64 87 0.0 0.0 0.00 0.00 0.00 34 890.8
20260507080726 65 101 0.0 0.0 0.00 0.00 0.00 34 890.9
20260507075516 65 72 0.0 0.0 0.00 0.00 0.00 34 890.9
20260507074307 65 90 0.0 0.0 0.00 0.00 0.00 34 891.0
20260507073058 65 98 0.0 0.0 0.00 0.00 0.00 34 891.0
20260507071849 65 89 0.0 0.0 0.00 0.00 0.00 34 891.2
20260507070640 65 125 0.0 0.0 0.00 0.00 0.00 33 891.4
20260507065431 65 100 0.0 0.0 0.00 0.00 0.00 32 891.1
20260507064222 65 134 0.0 0.0 0.00 0.00 0.00 32 891.1
20260507063014 65 135 0.0 0.0 0.00 0.00 0.00 31 890.9
20260507061804 66 118 0.0 0.0 0.00 0.00 0.00 30 890.9
20260507060555 66 104 0.0 0.0 0.00 0.00 0.00 30 890.9
20260507055346 66 145 0.0 0.0 0.00 0.00 0.00 29 891.0
20260507054137 66 129 0.0 0.0 0.00 0.00 0.00 29 891.1
20260507052928 66 120 0.0 0.0 0.00 0.00 0.00 29 890.9
20260507051719 67 75 0.0 0.0 0.00 0.00 0.00 29 890.9
20260507050510 67 91 0.0 0.0 0.00 0.00 0.00 29 890.7
20260507045301 68 115 0.0 0.0 0.00 0.00 0.00 30 890.7
20260507044052 68 97 0.0 0.0 0.00 0.00 0.00 29 890.7
20260507042843 68 87 0.0 0.0 0.00 0.00 0.00 29 890.7
20260507041634 69 110 0.0 0.0 0.00 0.00 0.00 28 890.4
20260507040428 70 1178 0.0 0.0 0.00 0.00 0.00 28 890.4
20260507040425 70 98 0.0 0.0 0.00 0.00 0.00 28 890.4
20260507035216 70 135 0.0 0.0 0.00 0.00 0.00 26 890.4
20260507034007 70 132 0.0 0.0 0.00 0.00 0.00 25 890.3
20260507032758 71 91 0.0 0.0 0.00 0.00 0.00 24 890.2
20260507031549 71 86 0.0 0.0 0.00 0.00 0.00 23 890.1
20260507030340 72 142 0.0 0.0 0.00 0.00 0.00 21 890.0
20260507025131 72 132 0.0 0.0 0.00 0.00 0.00 20 889.8
20260507023922 72 89 0.0 0.0 0.00 0.00 0.00 18 889.8
20260507022713 73 134 0.0 0.0 0.00 0.00 0.00 17 889.6
20260507021504 74 101 0.0 0.0 0.00 0.00 0.00 15 889.3
20260507020255 74 70 0.0 0.0 0.00 0.00 0.00 14 889.3
20260507015045 75 80 0.0 0.0 0.00 0.00 0.00 13 889.1
20260507013836 75 89 0.0 0.0 0.00 0.00 0.00 11 888.9
20260507012627 75 105 0.0 0.0 0.00 0.00 0.00 10 888.8
20260507011418 75 138 0.0 0.0 0.00 0.00 0.00 10 888.6
20260507010209 76 186 0.0 0.0 0.00 0.00 0.00 10 888.5
20260507005000 76 156 0.0 0.0 0.00 0.00 0.00 9 888.4
20260507003751 76 179 0.0 0.0 0.00 0.00 0.00 9 888.3
20260507002542 77 180 0.0 0.0 0.00 0.00 0.00 9 888.0
20260507001333 77 207 0.0 0.0 0.00 0.00 0.00 8 887.9
20260507000124 78 219 0.0 0.0 0.00 0.00 0.00 8 887.9
20260506234915 78 180 0.0 0.0 0.00 0.00 0.00 8 888.2
20260506233706 79 197 0.0 0.0 0.00 0.00 0.00 7 888.0
20260506232457 79 183 0.0 0.0 0.00 0.00 0.00 7 888.0
20260506231248 79 35 0.0 0.0 0.00 0.00 0.00 7 887.8
20260506230039 80 146 0.0 0.0 0.00 0.00 0.00 7 887.9
20260506224830 80 186 0.0 0.0 0.00 0.00 0.00 6 887.9
20260506223621 80 312 0.0 0.0 0.00 0.00 0.00 6 887.8
20260506222412 80 172 0.0 0.0 0.00 0.00 0.00 6 887.8
20260506221203 80 200 0.0 0.0 0.00 0.00 0.00 6 887.8
20260506215954 81 176 0.0 0.0 0.00 0.00 0.00 5 887.7
20260506214745 81 177 0.0 0.0 0.00 0.00 0.00 5 887.8
20260506213536 82 183 0.0 0.0 0.00 0.00 0.00 5 888.0
20260506212327 82 204 0.0 0.0 0.00 0.00 0.00 5 888.2
20260506211118 82 163 0.0 0.0 0.00 0.00 0.00 5 887.9
20260506205909 82 173 0.0 0.0 0.00 0.00 0.00 5 888.3
20260506204700 82 198 0.0 0.0 0.00 0.00 0.00 5 888.3
20260506203451 82 231 0.0 0.0 0.00 0.00 0.00 5 888.0
20260506202242 82 183 0.0 0.0 0.00 0.00 0.00 6 888.3
20260506201033 82 191 0.0 0.0 0.00 0.00 0.00 7 888.5
20260506195824 82 183 0.0 0.0 0.00 0.00 0.00 7 888.4
20260506194615 82 210 0.0 0.0 0.00 0.00 0.00 8 888.7
20260506193406 82 179 0.0 0.0 0.00 0.00 0.00 8 889.0
20260506192157 82 203 0.0 0.0 0.00 0.00 0.00 8 888.9
20260506190948 82 233 0.0 0.0 0.00 0.00 0.00 9 889.1
20260506185739 82 183 0.0 0.0 0.00 0.00 0.00 9 889.3
20260506183321 79 224 0.0 0.0 0.00 0.00 0.00 11 889.4
20260506182112 79 293 0.0 0.0 0.00 0.00 0.00 12 889.4
20260506180903 78 319 0.0 0.0 0.00 0.00 0.00 13 889.7
20260506175654 77 353 0.0 0.0 0.00 0.00 0.00 13 889.3
20260506174445 77 354 0.0 0.0 0.00 0.00 0.00 13 889.5
20260506173236 76 356 0.0 0.0 0.00 0.00 0.00 14 889.5
20260506172027 76 353 0.0 0.0 0.00 0.00 0.00 14 889.7
20260506170818 77 0 0.0 0.0 0.00 0.00 0.00 14 889.5
20260506165609 77 356 0.0 0.0 0.00 0.00 0.00 14 889.6
20260506164359 77 354 0.0 0.0 0.00 0.00 0.00 14 889.5
20260506161941 76 356 0.0 0.0 0.00 0.00 0.00 15 889.2
20260506160732 76 0 0.0 0.0 0.00 0.00 0.00 15 889.2
20260506155523 76 0 0.0 0.0 0.00 0.00 0.00 16 889.4
20260506154314 76 354 0.0 0.0 0.00 0.00 0.00 16 889.1
20260506153323 75 0 0.0 0.0 0.00 0.00 0.00 16 889.2
20260506153105 75 0 0.0 0.0 0.00 0.00 0.00 16 889.2
20260506151856 75 342 0.0 0.0 0.00 0.00 0.00 17 889.1
20260506150647 74 325 0.0 0.0 0.00 0.00 0.00 17 888.9
20260506145439 73 356 0.0 0.0 0.00 0.00 0.00 18 888.8
20260506144229 73 332 0.0 0.0 0.00 0.00 0.00 19 888.8
20260506143020 72 335 0.0 0.0 0.00 0.00 0.00 20 888.7
20260506141811 72 312 0.0 0.0 0.00 0.00 0.00 20 888.8
20260506140602 71 330 0.0 0.0 0.00 0.00 0.00 21 888.7
20260506135355 71 325 0.0 0.0 0.00 0.00 0.00 21 888.6
20260506134144 70 346 0.0 0.0 0.00 0.00 0.00 21 888.5
20260506132935 70 347 0.0 0.0 0.00 0.00 0.00 22 888.5
20260506130517 70 314 0.0 0.0 0.00 0.00 0.00 23 888.1
20260506125308 70 322 0.0 0.0 0.00 0.00 0.00 24 888.0
20260506124059 69 346 0.0 0.0 0.00 0.00 0.00 25 887.9
20260506122851 69 318 0.0 0.0 0.00 0.00 0.00 27 887.8
20260506121641 69 353 0.0 0.0 0.00 0.00 0.00 28 887.6